Location: Newark
(42.7133°N, 87.7910°W)
Time: 13:39:57
(UTC+00:00)

Vanguard 1 Rocket - Pass Details

Date: 23 September 2019
Orbit: 650 x 4226 km, 34.3° (Epoch: 20 October)

Event Time Altitude Azimuth Distance (km) Brightness Sun altitude
Rises 00:28:12 0° 252° (WSW) 8,301 13.6 -8.1°
Reaches altitude 10° 00:34:29 10° 250° (WSW) 6,994 13.0 -9.2°
Maximum altitude 00:55:13 61° 177° (S) 2,817 9.7 -12.9°
Enters shadow 01:04:22 18° 104° (ESE) 3,518 9.7 -14.6°
